Home > Weather > Hoofddorp > Past weeks

Flag for Netherlands Past Weather in Hoofddorp, Netherlands — Yesterday and Last 2 Weeks

Now
64 °F

Passing clouds.


Feels Like: 64 °F
Forecast: 58 / 66 °F
Wind: 7 mph from Northwest

Location: Amsterdam Schiphol Airport

Current Time: Jun 1, 2016 at 9:33:19 AM

Latest Report: Jun 1, 2016 at 8:55 AM


Visibility: 5 mi

Pressure: 29.95 "Hg

Humidity: 88%

Dew Point: 61 °F

Location of HoofddorpLocation

Past Weather in Hoofddorp — Graph

°F

Hoofddorp Temperature Yesterday

Maximum temperature yesterday: 72 °F (at 2:55 PM)
Minimum temperature yesterday: 61 °F (at 12:25 AM)
Average temperature yesterday: 66 °F

High & Low Weather Summary for the Past Weeks

 TemperatureHumidityPressure
High72 °F (May 21, 2:55 PM)100% (May 18, 11:25 PM)30.07 "Hg (May 18, 11:25 PM)
Low45 °F (May 26, 5:25 AM)52% (May 17, 3:25 PM)29.65 "Hg (May 18, 6:25 PM)
Average58 °F82%29.89 "Hg
* Reported May 17 7:25 AM — Jun 1 7:55 AM, Hoofddorp, Weather by CustomWeather, © 2016

Note: Actual official high and low records may vary slightly from our data, if they occured in-between our weather recording intervals... More about our weather records

Advertising

Hoofddorp Weather History for the Previous 24 Hours

Scroll right to see more
 ConditionsComfort  
Time TempWeatherWind HumidityBarometerVisibility
7:55 AM
Wed, Jun 1
59 °FScattered showers. Fog.6 mph100%29.95 "Hg2 mi
7:25 AM59 °FFog.7 mph94%29.95 "Hg1 mi
6:55 AM57 °FFog.7 mph100%29.95 "Hg1 mi
6:25 AM57 °FBroken clouds.6 mph100%29.95 "Hg1 mi
5:55 AM57 °FPartly cloudy.8 mph100%29.95 "Hg1 mi
5:25 AM59 °FCool.6 mph100%29.95 "Hg1 mi
4:55 AM59 °FPartly cloudy.6 mph100%29.95 "Hg1 mi
4:25 AM61 °FFog.9 mph100%29.95 "Hg1 mi
3:55 AM61 °FFog.8 mph100%29.95 "Hg1 mi
3:25 AM63 °FFog.8 mph94%29.95 "Hg0 mi
2:55 AM63 °FFog.6 mph100%29.95 "Hg0 mi
2:25 AM63 °FFog.6 mph100%29.95 "Hg1 mi
1:55 AM63 °FPassing clouds.7 mph100%29.95 "Hg1 mi
1:25 AM63 °FPassing clouds.6 mph94%29.95 "Hg1 mi
12:55 AM61 °FCool.3 mph100%29.95 "Hg1 mi
12:25 AM63 °FFog.3 mph94%29.95 "Hg2 mi
11:55 PM
Tue, May 31
63 °FFog.3 mph94%29.95 "Hg3 mi
11:25 PM64 °FClear.5 mph88%29.95 "Hg4 mi
10:55 PM64 °FClear.5 mph83%29.95 "Hg10 mi
10:25 PM64 °FSunny.6 mph78%29.92 "Hg10 mi
9:55 PM66 °FPassing clouds.3 mph68%29.92 "HgN/A
9:25 PM68 °FPassing clouds.3 mph64%29.92 "HgN/A
8:55 PM68 °FPassing clouds.6 mph64%29.92 "HgN/A
8:25 PM70 °FPassing clouds.6 mph64%29.89 "HgN/A
7:55 PM70 °FPassing clouds.7 mph64%29.89 "HgN/A
7:25 PM72 °FPassing clouds.5 mph61%29.86 "HgN/A
6:55 PM72 °FPassing clouds.7 mph57%29.86 "HgN/A
6:25 PM72 °FPassing clouds.6 mph57%29.86 "HgN/A
5:55 PM72 °FPassing clouds.7 mph61%29.86 "HgN/A
5:25 PM70 °FPassing clouds.7 mph64%29.86 "HgN/A
4:55 PM70 °FPassing clouds.8 mph60%29.86 "HgN/A
4:25 PM70 °FScattered clouds.9 mph60%29.86 "HgN/A
3:55 PM72 °FScattered clouds.9 mph61%29.86 "HgN/A
3:25 PM70 °FScattered clouds.10 mph64%29.83 "HgN/A
2:55 PM72 °FScattered clouds.10 mph61%29.83 "HgN/A
2:25 PM70 °FPassing clouds.10 mph64%29.83 "HgN/A
1:55 PM70 °FPassing clouds.12 mph64%29.83 "HgN/A
1:25 PM70 °FPassing clouds.10 mph64%29.83 "HgN/A
12:55 PM70 °FScattered clouds.10 mph69%29.80 "HgN/A
12:25 PM68 °FScattered clouds.13 mph69%29.80 "HgN/A
11:55 AM68 °FPassing clouds.14 mph73%29.80 "HgN/A
11:25 AM70 °FPassing clouds.12 mph69%29.77 "HgN/A
10:55 AM68 °FPassing clouds.12 mph73%29.77 "HgN/A
10:25 AM68 °FPassing clouds.10 mph73%29.77 "HgN/A
9:55 AM66 °FPassing clouds.9 mph78%29.77 "HgN/A
9:25 AM66 °FPassing clouds.10 mph78%29.77 "HgN/A
Weather by CustomWeather, © 2016

See weather overviewHow to use our weather pages